Location: Alexandria
(38.8050°N, 77.0470°W)
Time: 14:17:52
(UTC-05:00)

Vanguard 1 Rocket - Visible Passes

Search period start: 21 November 2017 00:00
Search period end: 01 December 2017 00:00
Orbit: 655 x 4222 km, 34.3° (Epoch: 21 November)

Date Brightness Start Highest point End Pass type
(mag) Time Alt. Az. Time Alt. Az. Time Alt. Az.
21 Nov 10.2 02:01:41 55° ESE 02:01:41 55° ESE 02:12:15 10° ESE visible
21 Nov 9.9 04:18:59 41° WSW 04:24:55 51° SW 04:36:43 10° SE visible
21 Nov 10.9 19:21:10 10° S 19:37:41 32° SE 19:39:29 31° SE visible
21 Nov 10.8 21:44:31 10° SW 21:56:47 43° SSW 21:56:47 43° SSW visible
22 Nov 10.9 00:14:06 10° WSW 00:54:36 29° E 01:00:22 10° E visible
22 Nov 9.9 03:11:54 65° SSW 03:12:09 65° SSW 03:26:27 10° SE visible
22 Nov 10.3 05:29:13 18° W 05:38:46 29° SW 05:48:15 10° S visible
22 Nov 11.1 18:13:46 10° SSE 18:25:22 19° SE 18:32:31 16° ESE visible
22 Nov 10.6 20:32:56 10° SSW 20:49:50 49° SSE 20:49:50 49° SSE visible
22 Nov 11.3 23:00:01 10° WSW 23:47:34 11° E 23:47:45 10° E visible
23 Nov 10.3 02:04:52 53° SE 02:04:52 53° SE 02:15:21 10° ESE visible
23 Nov 10.1 04:22:10 39° WSW 04:27:17 44° SW 04:39:21 10° SSE visible
23 Nov 10.7 19:22:40 10° SSW 19:39:34 38° SE 19:42:51 37° ESE visible
23 Nov 10.7 21:47:02 10° SW 22:00:09 47° SW 22:00:09 47° SW visible
24 Nov 10.9 00:16:56 10° W 00:57:50 29° ESE 01:03:29 10° ESE visible
24 Nov 10.0 03:15:08 59° SSW 03:15:08 59° SSW 03:29:19 10° SE visible
24 Nov 10.5 05:32:27 17° W 05:40:48 23° SW 05:49:58 10° S visible
24 Nov 11.0 18:14:07 10° S 18:27:09 24° SE 18:35:51 20° E visible
24 Nov 10.4 20:35:13 10° SW 20:53:09 56° SSE 20:53:09 56° SSE visible
24 Nov 11.2 23:02:50 10° WSW 23:50:49 10° E 23:10:28 29° WSW visible
25 Nov 10.3 02:08:08 50° SE 02:08:08 50° SE 02:18:22 10° ESE visible
25 Nov 10.3 04:25:26 35° WSW 04:29:28 38° SW 04:41:43 10° SSE visible
25 Nov 11.2 17:10:10 10° SE 17:15:36 12° ESE 17:21:47 10° ESE visible
25 Nov 10.6 19:24:35 10° SSW 19:41:31 44° SE 19:46:08 41° ESE visible
25 Nov 10.7 21:49:45 10° WSW 22:03:25 51° SW 22:03:25 51° SW visible
26 Nov 11.0 00:19:49 10° W 01:01:09 27° ESE 01:06:33 10° ESE visible
26 Nov 10.1 03:18:28 52° SSW 03:18:28 52° SSW 03:32:01 10° SE visible
26 Nov 10.8 05:35:46 14° W 05:42:45 18° WSW 05:51:00 10° SSW visible
26 Nov 10.8 18:15:20 10° S 18:28:58 30° SE 18:39:04 22° E visible
26 Nov 10.3 20:37:45 10° SW 20:56:22 63° SSE 20:56:22 63° SSE visible
26 Nov 11.2 23:05:44 10° W 23:54:11 - E 23:13:40 30° WSW visible
27 Nov 10.4 02:11:29 46° SE 02:11:29 46° SE 02:21:15 10° SE visible
27 Nov 10.5 04:28:48 31° WSW 04:31:30 32° SW 04:43:45 10° S visible
27 Nov 11.1 17:08:31 10° SSE 17:17:23 17° ESE 17:28:46 10° E visible
27 Nov 10.4 19:26:49 10° SSW 19:43:36 51° SE 19:49:17 45° ESE visible
27 Nov 10.6 21:52:36 10° WSW 22:06:34 54° SW 22:06:34 54° SW visible
28 Nov 11.1 00:22:43 10° W 01:04:32 26° ESE 01:09:33 10° ESE visible
28 Nov 10.3 03:21:50 45° SSW 03:21:50 45° SSW 03:34:29 10° SSE visible
28 Nov 11.0 05:39:09 11° WSW 05:44:36 13° WSW 05:50:32 10° SW visible
28 Nov 10.6 18:17:05 10° SSW 18:30:52 36° SE 18:42:09 24° E visible
28 Nov 10.3 20:40:28 10° WSW 20:59:26 68° SSE 20:59:26 68° SSE visible
28 Nov 11.2 23:08:42 10° W 23:57:35 - ESE 23:16:43 31° W visible
29 Nov 10.6 02:14:53 40° SSE 02:14:53 40° SSE 02:23:58 10° SE visible
29 Nov 10.7 04:32:12 26° WSW 04:33:25 26° SW 04:45:21 10° S visible
29 Nov 10.8 17:09:01 10° S 17:19:13 22° SE 17:33:32 10° E visible
29 Nov 10.3 19:29:20 10° SW 19:45:50 57° SSE 19:52:16 48° ESE visible
29 Nov 10.6 21:55:35 10° WSW 22:09:33 55° WSW 22:09:33 55° WSW visible
30 Nov 11.1 00:25:39 10° W 01:07:55 23° SE 01:12:25 10° ESE visible
30 Nov 10.5 03:25:14 38° SSW 03:25:14 38° SSW 03:36:40 10° SSE visible
30 Nov 10.4 18:19:13 10° SSW 18:32:54 42° SE 18:45:05 26° E visible
30 Nov 10.2 20:43:21 10° WSW 21:02:22 73° SSE 21:02:22 73° SSE visible
